Wind_Speed
19 20 20 21 21 22 23 25 26 26 26 27 26 27 28 28 28 28 28 29 29 30 30 29 29 29 29 29 29 29 29 29 29 29 29 28 28 29 29 29 29 30 30
20 22 22 21 22 22 24 25 25 26 26 26 26 27 27 27 28 28 28 29 30 29 29 29 29 29 28 28 29 29 28 28 28 28 28 28 28 28 28 28 29 30 30
20 21 22 22 23 23 24 25 25 26 26 26 26 27 27 28 28 29 29 30 29 28 28 29 29 29 28 29 28 27 28 28 28 28 28 29 28 27 28 28 29 29 30
19 21 22 23 23 23 24 24 25 25 25 26 27 27 27 28 28 29 29 29 28 29 29 29 28 28 28 28 28 27 27 27 27 27 27 28 28 28 27 28 28 29 28
21 21 21 22 22 23 24 25 24 23 24 25 26 26 26 27 28 28 28 28 28 28 28 28 28 28 28 28 27 27 27 27 27 26 26 26 27 27 28 28 28 28 27
20 20 20 22 23 23 23 23 22 23 24 25 25 25 26 27 28 28 27 27 27 28 27 28 28 28 27 27 26 26 27 27 26 26 25 26 25 26 26 26 25 25 25
19 20 22 24 24 23 23 23 24 24 24 24 24 25 25 26 26 27 27 27 27 27 27 27 27 26 25 25 25 25 25 25 25 25 25 25 25 26 25 25 25 24 23
20 20 21 22 23 23 23 24 23 23 23 24 24 24 25 25 26 26 26 27 26 25 25 25 25 24 24 23 23 24 24 24 24 25 25 25 25 26 25 24 24 25 24
21 21 22 22 23 23 23 24 23 24 24 24 24 24 25 25 26 25 25 25 25 24 24 24 25 24 24 24 24 25 24 24 24 24 24 25 25 25 25 24 24 24 24
21 20 21 22 23 24 24 24 24 24 24 25 24 24 25 25 24 24 23 24 24 23 23 24 24 23 24 24 24 24 24 24 24 24 24 24 24 24 23 23 23 23 23
24 22 23 23 24 24 24 24 24 24 24 24 24 24 24 24 23 23 23 23 23 23 22 22 22 22 23 23 23 24 24 23 23 23 23 23 23 23 23 22 22 22 22
22 23 24 24 24 24 24 23 24 24 24 24 24 23 23 23 23 22 22 22 22 21 21 21 22 21 22 22 22 22 22 22 22 22 22 22 22 22 21 20 20 20 21
23 23 23 24 24 25 25 24 24 24 24 24 24 23 23 21 21 21 21 21 21 21 21 21 21 20 20 21 21 21 21 21 21 21 21 21 21 20 19 18 18 19 20
23 23 23 23 23 24 24 23 23 24 24 24 23 22 21 20 20 20 21 21 21 21 20 19 20 19 20 20 20 21 21 20 20 19 19 18 18 19 18 18 18 18 19
23 24 23 23 23 24 24 24 23 23 24 23 21 20 19 19 19 19 20 20 20 19 18 19 19 19 20 20 20 20 19 19 19 19 18 18 18 18 19 19 18 18 18
24 24 24 23 24 24 24 24 23 23 22 21 19 20 19 19 19 19 20 20 20 19 18 18 19 19 19 19 19 19 19 19 19 18 18 17 18 18 18 18 18 18 18
24 24 23 23 23 24 24 23 22 22 20 20 19 18 18 18 18 18 19 19 18 17 17 18 18 19 19 19 19 18 19 19 19 18 17 17 17 18 17 17 18 18 18
24 23 23 22 23 22 22 22 21 21 19 18 17 17 17 17 17 17 17 17 17 17 18 18 18 18 18 19 18 18 18 18 18 18 18 18 18 18 17 17 18 18 17
22 22 23 22 22 22 22 21 20 19 18 17 17 17 16 16 17 16 15 16 16 16 17 18 17 18 18 18 17 18 17 17 17 17 17 18 18 18 17 17 17 17 17
22 22 22 22 22 21 21 21 20 19 18 17 16 16 15 15 15 15 14 15 16 16 17 16 16 17 17 17 17 17 17 17 17 17 17 17 17 17 17 17 17 17 17
22 22 21 22 22 21 21 20 19 18 17 16 15 14 14 14 14 14 14 14 15 15 15 15 16 16 16 16 16 16 16 16 17 17 17 17 17 17 17 17 16 17 17
21 21 21 21 20 20 20 19 17 17 15 14 14 13 13 13 13 13 13 14 13 13 14 15 15 16 15 16 16 16 16 16 17 17 18 18 18 18 18 17 17 17 17
20 20 20 19 19 18 17 17 16 14 14 12 12 12 12 12 11 11 12 12 13 13 14 15 15 15 16 16 16 16 16 17 18 18 19 18 18 18 18 18 17 17 17
19 19 18 17 17 16 15 14 14 13 12 11 11 11 10 10 9 9 10 11 12 13 13 14 15 15 16 16 16 16 16 17 18 19 19 19 19 19 19 19 18 18 18
18 17 16 15 15 14 13 13 13 12 10 9 9 9 8 8 8 8 9 10 11 12 14 14 15 15 15 15 16 17 17 18 18 19 19 19 19 19 19 19 20 19 19
15 15 14 13 12 12 12 11 11 9 8 8 8 7 7 6 7 8 9 10 11 13 14 14 15 15 15 15 16 16 17 18 19 19 19 20 20 20 19 20 20 21 20
Wind_Direction
290 290 292 294 293 294 296 297 299 300 301 303 303 302 302 303 303 303 304 302 302 302 298 297 297 296 294 292 292 292 291 291 292 291 289 288 286 284 282 281 280 278 276
291 289 291 294 295 296 297 296 297 299 300 300 300 301 301 302 303 302 304 305 304 303 300 302 300 299 297 292 291 292 292 292 293 292 289 287 286 286 284 282 281 280 278
292 291 294 296 297 296 297 297 295 299 300 300 300 303 302 303 302 304 305 305 305 304 302 303 304 303 300 296 294 294 294 294 294 292 289 288 287 286 285 284 284 283 280
292 293 295 299 297 296 297 298 298 299 300 302 301 303 304 305 306 306 305 306 305 304 303 303 303 303 300 297 295 295 295 295 294 292 290 289 288 285 285 285 285 283 282
288 291 296 300 301 300 301 301 299 301 303 304 305 305 306 306 308 308 307 307 306 305 304 303 303 302 301 298 295 294 294 294 294 293 292 291 289 287 288 287 285 284 282
295 297 301 303 301 299 299 301 301 302 304 305 305 306 307 307 308 309 309 308 308 306 305 305 304 302 301 299 296 294 294 295 295 294 293 293 291 290 290 289 288 286 283
296 299 299 301 300 298 298 300 301 302 303 305 305 304 308 309 308 308 309 310 308 307 307 307 305 304 302 301 299 297 297 297 296 295 295 295 294 292 289 288 288 289 286
300 296 298 300 300 299 298 300 301 304 306 307 307 306 308 310 308 308 310 311 309 307 308 308 307 306 304 303 302 301 300 299 299 298 297 296 296 293 291 290 290 290 289
296 298 298 299 300 301 299 300 300 303 305 306 304 303 306 308 309 310 311 312 311 308 308 309 310 308 306 304 304 305 302 302 301 301 299 298 296 294 292 293 291 290 290
296 297 295 296 299 299 300 301 301 301 303 303 302 302 303 306 308 310 311 313 313 313 310 312 312 311 310 308 307 306 304 303 302 302 301 298 296 295 294 292 289 290 291
298 297 295 296 296 296 296 299 299 298 301 303 304 302 302 305 308 309 309 310 313 316 315 314 314 315 315 313 310 309 307 304 303 302 302 299 297 297 296 292 289 288 289
300 299 298 297 295 296 297 297 300 302 302 303 304 304 303 305 307 309 309 309 311 313 317 318 317 316 316 317 317 317 314 309 307 305 303 302 300 299 297 294 293 291 290
300 302 303 300 298 297 298 297 298 300 301 301 302 303 303 305 306 309 309 311 313 314 316 318 318 321 321 321 320 318 318 316 313 309 307 306 305 302 300 298 296 294 292
301 303 303 303 303 303 303 300 298 299 299 299 299 301 302 305 308 311 312 312 314 313 314 318 321 324 323 323 321 322 322 322 320 316 314 312 309 306 303 301 300 298 297
302 303 301 301 302 304 305 306 304 301 299 299 299 300 302 303 305 309 314 314 313 314 317 319 321 323 324 324 325 325 325 323 322 319 316 313 309 306 305 304 305 305 303
300 301 301 300 300 302 305 306 306 304 300 298 299 300 301 301 302 305 309 317 314 315 317 319 323 324 324 322 322 324 324 324 322 318 314 313 312 310 307 306 307 307 304
298 299 299 300 302 303 304 305 305 304 301 298 298 301 304 304 304 305 309 314 316 318 318 321 324 324 324 323 323 323 325 326 326 324 321 318 316 315 311 309 308 309 307
298 298 299 301 303 305 304 305 305 305 302 299 298 301 304 304 307 309 310 312 318 321 322 323 325 324 323 324 324 325 325 326 326 326 326 323 321 316 313 311 311 312 310
298 300 301 303 305 307 305 305 306 304 301 301 300 303 303 303 306 309 313 315 321 324 326 327 325 326 326 326 327 329 329 328 329 331 331 328 326 321 318 316 314 313 313
298 300 303 304 306 307 307 306 305 303 301 301 300 304 305 303 306 310 313 320 323 325 326 326 328 328 328 328 330 332 333 333 332 333 333 334 332 327 321 318 316 315 314
297 299 301 303 305 305 306 307 306 305 305 303 302 308 308 307 307 310 313 318 322 326 329 331 333 332 332 333 335 337 337 336 335 334 335 335 334 332 329 326 322 319 318
296 297 299 301 303 304 304 307 309 308 307 306 305 309 311 311 310 309 312 320 323 325 330 332 334 333 336 338 337 336 337 337 337 337 338 338 339 338 335 331 329 328 326
295 297 299 301 301 303 304 309 313 312 308 307 307 308 313 313 311 315 319 325 329 329 332 334 333 333 336 337 336 336 336 336 336 337 338 338 339 338 336 334 332 330 328
295 297 298 300 301 302 305 310 312 311 308 306 308 310 313 313 312 325 332 333 336 338 339 340 339 339 338 337 338 338 336 336 338 337 337 335 336 336 334 333 332 330 329
296 297 297 296 300 304 307 311 312 308 308 309 312 316 316 314 318 329 336 340 342 344 342 341 342 342 341 340 341 341 340 340 339 339 338 338 337 335 334 335 334 329 327
295 296 296 297 300 305 307 311 315 310 309 315 327 332 326 324 328 337 340 343 345 345 346 345 345 345 345 345 343 341 340 341 342 341 339 339 338 336 334 333 332 331 328
Height
5846 5845 5843 5843 5841 5840 5838 5837 5835 5833 5831 5828 5826 5825 5822 5820 5818 5815 5813 5810 5808 5805 5803 5801 5800 5797 5795 5793 5791 5789 5787 5784 5782 5780 5779 5777 5775 5774 5772 5771 5771 5770 5769
5842 5841 5839 5838 5836 5835 5834 5832 5830 5828 5826 5824 5822 5820 5817 5815 5812 5809 5806 5804 5802 5800 5797 5795 5793 5791 5789 5786 5784 5782 5779 5777 5775 5773 5771 5770 5769 5767 5765 5763 5762 5761 5761
5838 5836 5835 5834 5832 5830 5829 5827 5825 5823 5821 5819 5817 5815 5812 5809 5807 5804 5801 5799 5796 5794 5792 5789 5787 5784 5782 5780 5777 5775 5773 5770 5768 5766 5764 5762 5761 5759 5758 5756 5754 5753 5752
5834 5832 5831 5829 5827 5825 5824 5821 5820 5818 5817 5814 5812 5810 5807 5804 5802 5799 5796 5793 5791 5788 5786 5783 5781 5778 5776 5773 5771 5769 5766 5764 5761 5759 5757 5755 5753 5751 5750 5749 5746 5745 5744
5828 5826 5826 5824 5822 5821 5819 5817 5815 5813 5811 5809 5807 5805 5802 5799 5796 5793 5790 5787 5785 5782 5780 5777 5774 5772 5769 5767 5764 5762 5759 5757 5754 5752 5750 5748 5746 5744 5742 5741 5739 5738 5736
5824 5823 5821 5820 5818 5816 5814 5812 5810 5809 5807 5804 5802 5800 5797 5794 5791 5788 5785 5782 5779 5776 5774 5771 5768 5766 5763 5760 5758 5755 5753 5750 5748 5745 5743 5741 5739 5737 5735 5733 5732 5731 5730
5821 5820 5818 5816 5814 5812 5810 5808 5806 5804 5802 5800 5797 5794 5791 5789 5786 5783 5780 5777 5774 5771 5768 5765 5762 5760 5757 5754 5752 5749 5746 5744 5741 5739 5736 5734 5732 5730 5728 5727 5725 5724 5723
5817 5816 5814 5812 5809 5807 5805 5804 5802 5800 5798 5795 5792 5790 5787 5784 5782 5779 5775 5772 5768 5765 5763 5760 5757 5754 5752 5749 5746 5743 5740 5738 5735 5732 5730 5728 5726 5724 5722 5720 5719 5718 5717
5814 5812 5810 5808 5805 5803 5801 5799 5798 5796 5793 5791 5788 5786 5783 5780 5777 5774 5771 5767 5763 5760 5758 5756 5753 5750 5747 5743 5740 5737 5734 5731 5728 5726 5724 5722 5719 5717 5716 5714 5713 5712 5711
5809 5807 5805 5804 5802 5799 5797 5795 5793 5791 5789 5786 5784 5781 5779 5776 5773 5770 5766 5763 5759 5756 5753 5751 5748 5745 5742 5738 5735 5732 5728 5725 5722 5720 5718 5716 5714 5712 5710 5709 5708 5706 5705
5804 5803 5801 5799 5797 5795 5792 5790 5788 5786 5784 5782 5779 5776 5774 5771 5769 5765 5762 5759 5756 5752 5750 5747 5744 5740 5737 5733 5730 5726 5722 5719 5717 5714 5712 5710 5708 5706 5705 5703 5702 5701 5700
5799 5797 5795 5793 5792 5789 5787 5785 5782 5780 5778 5776 5774 5772 5769 5767 5764 5761 5758 5754 5751 5748 5745 5743 5740 5736 5733 5729 5725 5721 5718 5715 5712 5710 5708 5705 5703 5701 5699 5698 5697 5696 5694
5794 5792 5790 5788 5786 5784 5782 5779 5777 5775 5773 5771 5769 5767 5765 5762 5759 5756 5753 5750 5747 5744 5741 5739 5736 5733 5729 5726 5722 5718 5715 5712 5709 5706 5704 5701 5699 5697 5695 5693 5692 5691 5689
5790 5788 5786 5783 5781 5778 5776 5773 5771 5769 5767 5765 5764 5762 5760 5757 5755 5752 5749 5746 5743 5740 5738 5735 5732 5729 5726 5722 5718 5715 5712 5709 5705 5702 5700 5697 5695 5693 5691 5689 5688 5686 5684
5785 5783 5781 5778 5776 5774 5772 5769 5766 5764 5762 5760 5758 5756 5755 5753 5750 5748 5745 5742 5740 5737 5734 5731 5729 5725 5722 5719 5715 5712 5709 5706 5702 5699 5696 5694 5692 5689 5687 5685 5683 5681 5680
5779 5777 5775 5773 5771 5769 5766 5764 5761 5758 5756 5754 5753 5751 5749 5748 5746 5743 5741 5739 5736 5733 5731 5728 5725 5722 5719 5716 5713 5709 5706 5703 5699 5696 5693 5691 5688 5686 5684 5682 5679 5677 5675
5774 5771 5769 5767 5765 5763 5760 5758 5755 5753 5751 5749 5747 5746 5744 5743 5741 5739 5737 5735 5732 5730 5727 5725 5722 5719 5716 5713 5710 5706 5703 5700 5697 5693 5690 5688 5685 5682 5680 5678 5675 5673 5671
5768 5766 5764 5762 5760 5757 5755 5752 5749 5747 5745 5743 5742 5741 5740 5739 5737 5735 5733 5731 5729 5727 5724 5721 5718 5715 5712 5710 5706 5703 5700 5697 5694 5690 5687 5684 5681 5678 5676 5674 5671 5669 5667
5762 5760 5759 5756 5754 5752 5749 5747 5744 5742 5740 5739 5738 5737 5735 5734 5733 5731 5729 5728 5726 5723 5721 5718 5715 5712 5709 5706 5704 5700 5697 5694 5691 5688 5684 5681 5678 5675 5672 5670 5668 5665 5663
5757 5755 5754 5751 5749 5747 5744 5742 5739 5737 5736 5734 5733 5732 5731 5730 5729 5727 5725 5724 5722 5720 5718 5715 5712 5709 5707 5704 5701 5698 5695 5691 5688 5685 5682 5678 5675 5672 5669 5666 5664 5662 5659
5752 5750 5749 5746 5744 5742 5740 5737 5734 5733 5731 5730 5729 5728 5727 5726 5725 5723 5722 5720 5719 5717 5714 5712 5709 5707 5704 5701 5698 5695 5692 5689 5686 5683 5679 5676 5672 5669 5666 5663 5660 5658 5655
5747 5745 5743 5741 5739 5737 5735 5733 5731 5729 5727 5726 5726 5725 5724 5723 5721 5720 5718 5717 5715 5714 5711 5709 5706 5704 5701 5698 5695 5693 5690 5687 5684 5681 5677 5674 5670 5667 5664 5661 5657 5654 5651
5741 5740 5738 5736 5734 5733 5731 5729 5727 5726 5724 5723 5723 5722 5721 5719 5718 5717 5715 5714 5713 5711 5708 5706 5703 5701 5699 5696 5693 5690 5687 5684 5681 5678 5674 5671 5668 5665 5661 5658 5655 5651 5648
5736 5735 5733 5732 5730 5729 5727 5726 5724 5722 5721 5720 5719 5719 5718 5717 5715 5714 5713 5712 5710 5708 5706 5704 5701 5698 5696 5693 5690 5688 5685 5682 5679 5675 5672 5668 5665 5662 5658 5655 5652 5648 5645
5731 5729 5728 5727 5726 5725 5724 5723 5721 5720 5719 5718 5717 5716 5715 5714 5713 5712 5711 5710 5708 5706 5704 5701 5699 5696 5694 5691 5688 5685 5682 5679 5676 5672 5669 5665 5662 5658 5655 5652 5648 5645 5641
5726 5725 5724 5723 5723 5722 5721 5720 5719 5718 5717 5716 5715 5714 5713 5713 5712 5711 5709 5708 5706 5704 5702 5699 5697 5694 5691 5688 5686 5683 5680 5676 5673 5669 5666 5662 5658 5655 5651 5648 5644 5641 5637